User: anonymous   Login
Location: Long Point Provincial Park
(42.5794°N, 80.4103°W)
Time: 01:12:54
(UTC-05:00)
Language:

Iridium 19 - Orbit

View from above orbital plane
View from above orbital plane
View from above satellite
View from above satellite

Ground track
Ground track

The orbit data is extracted from the following two-line orbital elements,

1 24965U 97056A   17052.37653817  .00000150  00000-0  46463-4 0  9991
2 24965  86.3990   7.1103 0002199  86.7550 273.3897 14.34215194 15950
Epoch (UTC): 21 February 2017 09:02:12
Eccentricity: 0.0002199
inclination: 86.3990°
perigee height: 776 km
apogee height: 779 km
right ascension of ascending node: 7.1103°
argument of perigee: 86.7550°
revolutions per day: 14.34215194
mean anomaly at epoch: 273.3897°
orbit number at epoch: 1595

The dashed part of the orbit path shows where the satellite is in the earth's shadow,  

DLR